Back to catalog

FENGYUN 1C DEB

AlivePO
NORAD 30552·DEBRIS·🇨🇳 China

Launched May 10, 1999 from Taiyuan Satellite Launch Center

Loading…

Next Passes (next 24 hours)

TLE

FreshSource: Space-Track

Epoch: Sep 14, 2026, 08:56 UTC

1 30552U 99025AKS 26257.37288220  .00008335  00000-0  16907-2 0  9998
2 30552  98.8466  51.4536 0013376 135.5029 224.7246 14.61421471 16697

Track FENGYUN 1C DEB in real time with AllMySat

Download on the App Store